map of MCZ home
Great Circle Mapper logo
MCZ - Airport
Location
City:  Maceió, Alagoas, Brazil
Name:Zumbi dos Palmares
Old (Alt.):Campo dos Palmares
ICAO / IATA:SBMO / MCZ

Details
Type:Airport (Aerodrome, Airfield)
Use:Public/Civil
Latitude:9°30'39"S (-9.510807)
Longitude:35°47'30"W (-35.791677)
Datum:WGS 1984
Elevation:387 ft (118 m)
Variation:22.65°W (WMM2015 magnetic declination)
0.02° annual change
Runways:1
Longest:8537 × 148 ft (2602 × 45 m), paved

Time
Time Zone:UTC-3
Local Time:

Weather
METAR:SBMO 301600Z 10012KT 9999 SCT022 30/19 Q1013
TAF:SBMO 301600Z 3018/3118 10010KT 8000 SCT020 TN22/3106Z TX29/3115Z
BECMG 3020/3021 10005KT
BECMG 3103/3105 35003KT
BECMG 3109/3111 11010KT RM K PEI

Related Locations
Nearby:
Farthest:GUM: 12154 mi / 19560 km
Agana [Guam Intl (Antonio B. Won Pat Intl)], GU, US

Find:

   beyond  
but within

Other Information
Maps:
NOTAMs:
Links:
Sources:

  
flag of Brazil
flag of Alagoas
  

Sectional Chart

Flight Planning
at skyvector.com

Satellite Image

Google Maps Satellite View

 

Copyright © 2004-2015 Karl L. Swartz. All rights reserved.
The Great Circle Mapper name and logo are trademarks of the Great Circle Mapper.
All other trademarks mentioned herein belong to their respective owners.
Please see credits for attibutions and further copyright information.

  Follow gcmap on Facebook Follow gcmap on Twitter

hCard Microformat

Geo Microformat